| time (UTC) | temp F | wind direction | speed MPH | gust MPH | rain 1hr in | rain 24hr in | rain mn in | humidity % | barometer mb |
| 20260902033520 | 75 | 343 | 1.0 | 1.0 | 0.00 | 0.00 | 0.00 | 99 | 680.0 |
| 20260902032612 | 75 | 338 | 1.0 | 1.0 | 0.00 | 0.00 | 0.00 | 99 | 680.0 |
| 20260902031520 | 76 | 346 | 1.0 | 2.0 | 0.00 | 0.00 | 0.00 | 99 | 680.1 |
| 20260902030520 | 76 | 3 | 2.0 | 3.0 | 0.00 | 0.00 | 0.00 | 99 | 680.1 |
| 20260902025520 | 76 | 8 | 2.0 | 2.0 | 0.00 | 0.00 | 0.00 | 99 | 680.1 |
| 20260902024535 | 76 | 321 | 1.0 | 1.0 | 0.00 | 0.00 | 0.00 | 99 | 680.1 |
| 20260902023520 | 76 | 0.0 | 0.0 | 0.00 | 0.00 | 0.00 | 99 | 680.1 | |
| 20260902022520 | 77 | 0.0 | 0.0 | 0.00 | 0.00 | 0.00 | 99 | 680.1 | |
| 20260902021520 | 77 | 314 | 1.0 | 2.0 | 0.00 | 0.00 | 0.00 | 99 | 680.1 |
| 20260902020520 | 77 | 0.0 | 0.0 | 0.00 | 0.00 | 0.00 | 99 | 680.1 | |
| 20260902015521 | 78 | 0.0 | 0.0 | 0.00 | 0.00 | 0.00 | 99 | 680.1 | |
| 20260902014521 | 78 | 0.0 | 0.0 | 0.00 | 0.00 | 0.00 | 99 | 680.1 | |
| 20260902013522 | 78 | 344 | 0.0 | 1.0 | 0.00 | 0.00 | 0.00 | 99 | 680.1 |
| 20260902012521 | 78 | 9 | 0.0 | 2.0 | 0.00 | 0.00 | 0.00 | 99 | 680.1 |
| 20260902011521 | 79 | 0.0 | 0.0 | 0.00 | 0.00 | 0.00 | 99 | 680.1 | |
| 20260902010521 | 79 | 344 | 0.0 | 1.0 | 0.00 | 0.00 | 0.00 | 99 | 680.1 |
| 20260902005521 | 79 | 342 | 0.0 | 1.0 | 0.00 | 0.00 | 0.00 | 99 | 680.2 |
| 20260902004521 | 80 | 333 | 1.0 | 1.0 | 0.00 | 0.00 | 0.00 | 99 | 680.2 |
| 20260902003522 | 80 | 333 | 1.0 | 2.0 | 0.00 | 0.00 | 0.00 | 99 | 680.2 |
| 20260902002522 | 81 | 355 | 2.0 | 3.0 | 0.00 | 0.00 | 0.00 | 99 | 680.2 |
| 20260902001543 | 82 | 16 | 2.0 | 4.0 | 0.00 | 0.00 | 0.00 | 99 | 680.2 |
| 20260902000522 | 82 | 8 | 2.0 | 4.0 | 0.00 | 0.00 | 0.00 | 99 | 680.2 |
| 20260901235522 | 83 | 4 | 2.0 | 4.0 | 0.00 | 0.00 | 0.00 | 99 | 680.2 |
| 20260901234523 | 83 | 10 | 2.0 | 3.0 | 0.00 | 0.00 | 0.00 | 99 | 680.2 |
| 20260901233408 | 84 | 5 | 3.0 | 5.0 | 0.00 | 0.00 | 0.00 | 99 | 680.2 |
| 20260901232523 | 84 | 22 | 2.0 | 3.0 | 0.00 | 0.00 | 0.00 | 99 | 680.2 |
| 20260901231523 | 85 | 8 | 3.0 | 5.0 | 0.00 | 0.00 | 0.00 | 99 | 680.3 |
| 20260901230523 | 86 | 8 | 3.0 | 5.0 | 0.00 | 0.00 | 0.00 | 99 | 680.3 |
| 20260901225604 | 86 | 10 | 3.0 | 4.0 | 0.00 | 0.00 | 0.00 | 99 | 680.3 |
| 20260901224544 | 87 | 360 | 1.0 | 2.0 | 0.00 | 0.00 | 0.00 | 99 | 680.3 |
| 20260901223543 | 87 | 26 | 0.0 | 2.0 | 0.00 | 0.00 | 0.00 | 99 | 680.3 |
| 20260901222523 | 87 | 211 | 1.0 | 3.0 | 0.00 | 0.00 | 0.00 | 99 | 680.3 |
| 20260901221523 | 87 | 101 | 2.0 | 3.0 | 0.00 | 0.00 | 0.00 | 99 | 680.3 |
| 20260901220453 | 88 | 86 | 1.0 | 2.0 | 0.00 | 0.00 | 0.00 | 99 | 680.3 |
| 20260901215524 | 88 | 69 | 1.0 | 2.0 | 0.00 | 0.00 | 0.00 | 99 | 680.3 |
| 20260901214544 | 88 | 108 | 1.0 | 3.0 | 0.00 | 0.00 | 0.00 | 99 | 680.3 |
| 20260901213524 | 88 | 134 | 0.0 | 1.0 | 0.00 | 0.00 | 0.00 | 99 | 680.3 |
| 20260901212525 | 88 | 22 | 1.0 | 3.0 | 0.00 | 0.00 | 0.00 | 99 | 680.3 |
| 20260901211545 | 88 | 358 | 2.0 | 3.0 | 0.00 | 0.00 | 0.00 | 99 | 680.4 |
| 20260901210554 | 88 | 11 | 2.0 | 3.0 | 0.00 | 0.00 | 0.00 | 99 | 680.4 |
| 20260901205525 | 88 | 333 | 0.0 | 1.0 | 0.00 | 0.00 | 0.00 | 99 | 680.4 |
| 20260901204525 | 88 | 38 | 2.0 | 4.0 | 0.00 | 0.00 | 0.00 | 99 | 680.4 |
| 20260901203430 | 88 | 294 | 1.0 | 2.0 | 0.00 | 0.00 | 0.00 | 99 | 680.4 |
| 20260901202410 | 88 | 90 | 2.0 | 4.0 | 0.00 | 0.00 | 0.00 | 99 | 680.4 |
| 20260901201525 | 87 | 209 | 1.0 | 3.0 | 0.00 | 0.00 | 0.00 | 99 | 680.4 |
| 20260901200410 | 87 | 157 | 2.0 | 3.0 | 0.00 | 0.00 | 0.00 | 99 | 680.3 |
| 20260901195526 | 87 | 185 | 2.0 | 3.0 | 0.00 | 0.00 | 0.00 | 99 | 680.3 |
| 20260901194545 | 87 | 143 | 2.0 | 3.0 | 0.00 | 0.00 | 0.00 | 99 | 680.3 |
| 20260901193526 | 87 | 206 | 1.0 | 3.0 | 0.00 | 0.00 | 0.00 | 99 | 680.4 |
| 20260901192526 | 87 | 232 | 1.0 | 4.0 | 0.00 | 0.01 | 0.00 | 99 | 680.3 |
| 20260901191527 | 87 | 131 | 1.0 | 2.0 | 0.00 | 0.01 | 0.00 | 99 | 680.3 |
| 20260901190516 | 87 | 190 | 1.0 | 3.0 | 0.00 | 0.01 | 0.00 | 99 | 680.3 |
| 20260901185411 | 87 | 189 | 1.0 | 3.0 | 0.00 | 0.01 | 0.00 | 99 | 680.3 |
| 20260901184447 | 88 | 185 | 1.0 | 5.0 | 0.00 | 0.01 | 0.00 | 99 | 680.4 |
| 20260901183412 | 88 | 127 | 1.0 | 3.0 | 0.00 | 0.01 | 0.00 | 99 | 680.4 |
| 20260901182527 | 87 | 132 | 3.0 | 5.0 | 0.00 | 0.01 | 0.00 | 99 | 680.4 |
| 20260901181412 | 87 | 87 | 2.0 | 4.0 | 0.00 | 0.01 | 0.00 | 99 | 680.4 |
| 20260901180412 | 87 | 115 | 3.0 | 6.0 | 0.00 | 0.01 | 0.00 | 99 | 680.4 |
| 20260901175516 | 88 | 100 | 2.0 | 4.0 | 0.00 | 0.01 | 0.00 | 99 | 680.4 |
| 20260901174412 | 88 | 108 | 2.0 | 6.0 | 0.00 | 0.01 | 0.00 | 99 | 680.4 |
| 20260901173412 | 88 | 125 | 3.0 | 5.0 | 0.00 | 0.01 | 0.00 | 99 | 680.4 |
| 20260901172537 | 88 | 109 | 3.0 | 5.0 | 0.00 | 0.01 | 0.00 | 99 | 680.4 |
| 20260901171537 | 88 | 111 | 3.0 | 7.0 | 0.00 | 0.01 | 0.00 | 99 | 680.4 |
| 20260901170518 | 88 | 116 | 3.0 | 5.0 | 0.00 | 0.02 | 0.00 | 99 | 680.4 |
| 20260901165517 | 88 | 93 | 2.0 | 6.0 | 0.00 | 0.02 | 0.00 | 99 | 680.4 |
| 20260901164557 | 89 | 117 | 3.0 | 5.0 | 0.00 | 0.04 | 0.00 | 99 | 680.4 |
| 20260901163413 | 89 | 90 | 3.0 | 7.0 | 0.00 | 0.04 | 0.00 | 99 | 680.4 |
| 20260901162414 | 89 | 60 | 3.0 | 7.0 | 0.00 | 0.04 | 0.00 | 99 | 680.4 |
| 20260901161429 | 89 | 113 | 2.0 | 6.0 | 0.00 | 0.06 | 0.00 | 99 | 680.4 |
| 20260901160414 | 88 | 65 | 2.0 | 3.0 | 0.00 | 0.08 | 0.00 | 99 | 680.4 |
| 20260901155414 | 89 | 73 | 3.0 | 4.0 | 0.00 | 0.09 | 0.00 | 99 | 680.4 |
| 20260901154414 | 88 | 88 | 1.0 | 3.0 | 0.00 | 0.10 | 0.00 | 99 | 680.3 |
| 20260901153018 | 86 | 108 | 3.0 | 6.0 | 0.00 | 0.11 | 0.00 | 99 | 680.3 |
| 20260901152039 | 85 | 91 | 4.0 | 6.0 | 0.00 | 0.11 | 0.00 | 99 | 680.3 |
| 20260901151019 | 84 | 109 | 4.0 | 7.0 | 0.00 | 0.11 | 0.00 | 99 | 680.2 |
| 20260901150019 | 83 | 145 | 2.0 | 5.0 | 0.00 | 0.11 | 0.00 | 99 | 680.2 |
| 20260901145019 | 81 | 123 | 3.0 | 6.0 | 0.00 | 0.11 | 0.00 | 99 | 680.2 |
| 20260901144019 | 79 | 126 | 3.0 | 5.0 | 0.00 | 0.11 | 0.00 | 99 | 680.1 |
| 20260901142915 | 78 | 93 | 2.0 | 5.0 | 0.00 | 0.11 | 0.00 | 99 | 680.1 |
| 20260901142040 | 77 | 135 | 2.0 | 4.0 | 0.00 | 0.11 | 0.00 | 99 | 680.1 |
| 20260901141020 | 76 | 111 | 2.0 | 4.0 | 0.00 | 0.11 | 0.00 | 99 | 680.0 |
| 20260901140020 | 75 | 112 | 3.0 | 5.0 | 0.00 | 0.11 | 0.00 | 99 | 680.0 |
| 20260901135020 | 74 | 111 | 2.0 | 4.0 | 0.00 | 0.11 | 0.00 | 99 | 680.0 |
| 20260901134020 | 73 | 101 | 2.0 | 4.0 | 0.00 | 0.11 | 0.00 | 99 | 680.0 |
| 20260901133020 | 73 | 109 | 2.0 | 5.0 | 0.00 | 0.11 | 0.00 | 99 | 680.0 |
| 20260901131916 | 72 | 117 | 2.0 | 4.0 | 0.00 | 0.11 | 0.00 | 99 | 680.0 |
| 20260901131021 | 72 | 114 | 2.0 | 4.0 | 0.00 | 0.11 | 0.00 | 99 | 680.0 |
| 20260901130021 | 71 | 119 | 2.0 | 4.0 | 0.00 | 0.11 | 0.00 | 99 | 680.0 |
| 20260901125020 | 71 | 117 | 3.0 | 6.0 | 0.00 | 0.11 | 0.00 | 99 | 679.9 |
| 20260901124021 | 70 | 122 | 1.0 | 2.0 | 0.00 | 0.11 | 0.00 | 99 | 679.9 |
| 20260901123021 | 70 | 111 | 1.0 | 3.0 | 0.00 | 0.13 | 0.00 | 99 | 679.9 |
| 20260901122021 | 69 | 126 | 1.0 | 2.0 | 0.00 | 0.14 | 0.00 | 99 | 679.9 |
| 20260901121017 | 69 | 108 | 1.0 | 3.0 | 0.00 | 0.14 | 0.00 | 99 | 679.9 |
| 20260901115917 | 68 | 107 | 1.0 | 2.0 | 0.00 | 0.14 | 0.00 | 99 | 679.9 |
| 20260901114938 | 68 | 79 | 1.0 | 2.0 | 0.00 | 0.14 | 0.00 | 99 | 679.9 |
| 20260901113917 | 68 | 86 | 1.0 | 2.0 | 0.00 | 0.16 | 0.00 | 99 | 679.9 |
| 20260901112937 | 68 | 56 | 1.0 | 2.0 | 0.00 | 0.16 | 0.00 | 99 | 679.9 |
| 20260901111957 | 68 | 73 | 1.0 | 2.0 | 0.00 | 0.20 | 0.00 | 99 | 679.9 |
| 20260901110917 | 68 | 0.0 | 0.0 | 0.00 | 0.28 | 0.00 | 99 | 679.9 | |
| 20260901110018 | 68 | 85 | 0.0 | 2.0 | 0.00 | 0.35 | 0.00 | 99 | 679.9 |
| 20260901104938 | 68 | 70 | 0.0 | 1.0 | 0.00 | 0.37 | 0.00 | 99 | 679.9 |
| 20260901104018 | 68 | 117 | 0.0 | 1.0 | 0.00 | 0.39 | 0.00 | 99 | 679.9 |
| 20260901103018 | 68 | 104 | 0.0 | 1.0 | 0.00 | 0.39 | 0.00 | 99 | 679.9 |
| 20260901101939 | 69 | 90 | 1.0 | 2.0 | 0.00 | 0.40 | 0.00 | 99 | 679.9 |
| 20260901100936 | 69 | 101 | 1.0 | 2.0 | 0.00 | 0.42 | 0.00 | 99 | 679.9 |
| 20260901100058 | 69 | 119 | 1.0 | 2.0 | 0.00 | 0.42 | 0.00 | 99 | 679.9 |
| 20260901094919 | 69 | 124 | 1.0 | 2.0 | 0.00 | 0.42 | 0.00 | 99 | 679.9 |
| 20260901093939 | 69 | 118 | 1.0 | 3.0 | 0.00 | 0.42 | 0.00 | 99 | 679.9 |
| 20260901093019 | 69 | 110 | 1.0 | 3.0 | 0.00 | 0.42 | 0.00 | 99 | 679.9 |
| 20260901092018 | 69 | 93 | 1.0 | 2.0 | 0.00 | 0.44 | 0.00 | 99 | 679.9 |
| 20260901090919 | 69 | 91 | 1.0 | 2.0 | 0.00 | 0.44 | 0.00 | 99 | 679.9 |
| 20260901090039 | 69 | 87 | 2.0 | 3.0 | 0.00 | 0.44 | 0.00 | 99 | 679.9 |
| 20260901084920 | 70 | 100 | 2.0 | 4.0 | 0.00 | 0.44 | 0.00 | 99 | 679.9 |
| 20260901084015 | 70 | 109 | 1.0 | 3.0 | 0.00 | 0.44 | 0.00 | 99 | 679.9 |
| 20260901082937 | 70 | 96 | 2.0 | 3.0 | 0.00 | 0.44 | 0.00 | 99 | 679.9 |
| 20260901081920 | 70 | 83 | 2.0 | 4.0 | 0.00 | 0.44 | 0.00 | 99 | 679.9 |
| 20260901080920 | 70 | 81 | 2.0 | 4.0 | 0.00 | 0.44 | 0.00 | 99 | 679.9 |
| 20260901075920 | 70 | 95 | 2.0 | 6.0 | 0.00 | 0.44 | 0.00 | 99 | 679.9 |
| 20260901074920 | 70 | 89 | 2.0 | 3.0 | 0.00 | 0.44 | 0.00 | 99 | 679.9 |
| 20260901074020 | 70 | 80 | 2.0 | 2.0 | 0.00 | 0.44 | 0.00 | 99 | 679.9 |
| 20260901072921 | 70 | 93 | 1.0 | 2.0 | 0.00 | 0.44 | 0.00 | 99 | 679.9 |
| 20260901072021 | 70 | 71 | 1.0 | 2.0 | 0.00 | 0.48 | 0.00 | 99 | 679.9 |
| 20260901070941 | 70 | 19 | 1.0 | 3.0 | 0.00 | 0.49 | 0.00 | 99 | 679.9 |
| 20260901070021 | 70 | 14 | 1.0 | 3.0 | 0.00 | 0.49 | 0.00 | 99 | 679.9 |
| 20260901065041 | 70 | 36 | 2.0 | 2.0 | 0.00 | 0.49 | 0.00 | 99 | 679.9 |
| 20260901063921 | 70 | 56 | 1.0 | 3.0 | 0.00 | 0.49 | 0.00 | 99 | 679.9 |
| 20260901062921 | 70 | 77 | 2.0 | 5.0 | 0.00 | 0.53 | 0.00 | 99 | 679.9 |
| 20260901061943 | 70 | 28 | 2.0 | 4.0 | 0.00 | 0.60 | 0.00 | 99 | 679.9 |
| 20260901060921 | 70 | 3 | 3.0 | 4.0 | 0.00 | 0.60 | 0.00 | 99 | 679.9 |
| 20260901055927 | 70 | 15 | 3.0 | 3.0 | 0.00 | 0.60 | 0.00 | 99 | 679.9 |
| 20260901054922 | 70 | 15 | 2.0 | 4.0 | 0.00 | 0.60 | 0.00 | 99 | 679.9 |
| 20260901053922 | 70 | 20 | 1.0 | 4.0 | 0.00 | 0.60 | 0.00 | 99 | 679.9 |
| 20260901052922 | 70 | 17 | 4.0 | 6.0 | 0.00 | 0.60 | 0.00 | 99 | 679.9 |
| 20260901051922 | 70 | 8 | 4.0 | 6.0 | 0.00 | 0.60 | 0.00 | 99 | 679.9 |
| 20260901051043 | 70 | 10 | 4.0 | 5.0 | 0.00 | 0.60 | 0.00 | 99 | 679.9 |
| 20260901050023 | 70 | 8 | 3.0 | 4.0 | 0.00 | 0.60 | 0.00 | 99 | 679.9 |
| 20260901044923 | 70 | 9 | 4.0 | 5.0 | 0.00 | 0.60 | 0.00 | 99 | 679.9 |
| 20260901043923 | 70 | 6 | 4.0 | 5.0 | 0.00 | 0.60 | 0.00 | 99 | 679.9 |
| 20260901042938 | 70 | 8 | 3.0 | 5.0 | 0.00 | 0.60 | 0.00 | 99 | 679.9 |
| 20260901041923 | 70 | 0 | 2.0 | 3.0 | 0.00 | 0.60 | 0.00 | 99 | 679.9 |
| 20260901040923 | 70 | 360 | 3.0 | 4.0 | 0.00 | 0.60 | 0.00 | 99 | 679.9 |
| 20260901040043 | 70 | 5 | 3.0 | 5.0 | 0.00 | 0.60 | 0.00 | 99 | 679.9 |
| 20260901034924 | 70 | 3 | 3.0 | 5.0 | 0.00 | 0.60 | 0.60 | 99 | 679.9 |